Weather History for EGBB - October, 2013

Change the Weather History Date:

Saturday, October 19, 2013

  Actual Average Record
Temperature  
Mean Temperature 58 °F -  
Max Temperature 64 °F 52 °F 68 °F (1997)
Min Temperature 51 °F 39 °F 30 °F (2002)
Degree Days  
Heating Degree Days 8    
Growing Degree Days 8 (Base 50)    
Moisture  
Dew Point 55 °F    
Average Humidity 95    
Maximum Humidity 100    
Minimum Humidity 77    
Precipitation  
Precipitation 0.00 in 0.07 in - ()
Sea Level Pressure  
Sea Level Pressure 29.61 in    
Wind  
Wind Speed 9 mph ()    
Max Wind Speed 17 mph    
Max Gust Speed -    
Visibility 4.8 miles    
Events Rain    
Averages and records for this station are not official NWS values.
T = Trace of Precipitation, MM = Missing Value Source: Averaged Metar Reports

Daily Weather History Graph

Daily Weather History Graph

Search for Another Location

Airport or City:

Trip Planner

Search our weather history database for the weather conditions in past years. The results will help you decide how hot, cold, wet, or windy it might be!

Date:

Astronomy

Oct. 19, 2013 Rise Set
Actual Time 7:39 AM BST 6:03 PM BST
Civil Twilight 7:04 AM BST 6:38 PM BST
Nautical Twilight 6:25 AM BST 7:17 PM BST
Astronomical Twilight 5:45 AM BST 7:56 PM BST
Moon 6:13 PM BST (10/19) 8:08 AM BST (10/19)
Length of Visible Light 11h 33m
Length of Day
10h 23m
Full, 100% of the Moon is Illuminated
Oct 19
Full
Oct 27
Last Quarter
Nov 3
New
Nov 10
First Quarter
Nov 17
Full

Hourly Weather History & Observations

Time (BST) Temp. Dew Point Humidity Pressure Visibility Wind Dir Wind Speed Gust Speed Precip Events Conditions
12:20 AM 53.6 °F 53.6 °F 100% 29.71 in 4.3 mi SE 11.5 mph - N/A Rain Light Rain
12:50 AM 53.6 °F 53.6 °F 100% 29.71 in 3.7 mi SE 11.5 mph - N/A Rain Light Rain
1:20 AM 53.6 °F 53.6 °F 100% 29.71 in 3.7 mi SE 10.4 mph - N/A Rain Light Rain
1:50 AM 53.6 °F 53.6 °F 100% 29.68 in 4.3 mi SE 11.5 mph - N/A Rain Light Rain
2:20 AM 53.6 °F 53.6 °F 100% 29.68 in 5.0 mi SE 10.4 mph - N/A   Overcast
2:50 AM 53.6 °F 53.6 °F 100% 29.65 in 4.3 mi SE 10.4 mph - N/A   Overcast
3:20 AM 53.6 °F 53.6 °F 100% 29.65 in 3.7 mi SSE 10.4 mph - N/A Rain Light Rain
3:50 AM 53.6 °F 53.6 °F 100% 29.65 in 1.9 mi SE 11.5 mph - N/A Rain Light Rain
4:20 AM 53.6 °F 53.6 °F 100% 29.62 in 2.5 mi SE 10.4 mph - N/A Rain Light Rain
4:50 AM 53.6 °F 53.6 °F 100% 29.62 in - SSE 11.5 mph - N/A   Overcast
5:20 AM 55.4 °F 53.6 °F 94% 29.62 in - SSE 11.5 mph - N/A Rain Light Rain
5:50 AM 55.4 °F 55.4 °F 100% 29.59 in 3.1 mi SSE 12.7 mph - N/A Rain Light Rain
6:20 AM 55.4 °F 55.4 °F 100% 29.59 in 3.1 mi SSE 10.4 mph - N/A   Light Drizzle
6:50 AM 55.4 °F 55.4 °F 100% 29.59 in 3.1 mi SSE 11.5 mph - N/A   Light Drizzle
7:20 AM 55.4 °F 55.4 °F 100% 29.59 in 3.1 mi SSE 11.5 mph - N/A   Overcast
7:50 AM 55.4 °F 55.4 °F 100% 29.59 in 3.1 mi SSE 11.5 mph - N/A   Overcast
8:20 AM 55.4 °F 55.4 °F 100% 29.59 in 3.1 mi SSE 9.2 mph - N/A   Overcast
8:50 AM 57.2 °F 55.4 °F 94% 29.59 in 3.7 mi SSE 9.2 mph - N/A   Mostly Cloudy
9:20 AM 57.2 °F 57.2 °F 100% 29.59 in 4.3 mi South 8.1 mph - N/A   Mostly Cloudy
9:50 AM 59.0 °F 57.2 °F 94% 29.59 in 6.2 mi South 8.1 mph - N/A   Scattered Clouds
10:20 AM 59.0 °F 59.0 °F 100% 29.59 in 6.2 mi South 9.2 mph - N/A   Mostly Cloudy
10:50 AM 60.8 °F 59.0 °F 94% 29.59 in 6.2 mi South 10.4 mph - N/A   Scattered Clouds
11:20 AM 60.8 °F 59.0 °F 94% 29.59 in 6.2 mi South 9.2 mph - N/A   Scattered Clouds
11:50 AM 62.6 °F 59.0 °F 88% 29.59 in 6.2 mi South 8.1 mph - N/A   Scattered Clouds
12:20 PM 62.6 °F 59.0 °F 88% 29.62 in 6.2 mi South 9.2 mph - N/A   Mostly Cloudy
12:50 PM 62.6 °F 59.0 °F 88% 29.59 in 6.2 mi South 9.2 mph - N/A   Mostly Cloudy
1:20 PM 62.6 °F 57.2 °F 82% 29.59 in 6.2 mi South 10.4 mph - N/A   Mostly Cloudy
1:50 PM 62.6 °F 57.2 °F 82% 29.59 in 6.2 mi South 9.2 mph - N/A   Scattered Clouds
2:20 PM 62.6 °F 57.2 °F 82% 29.59 in 6.2 mi South 10.4 mph - N/A   Scattered Clouds
2:50 PM 62.6 °F 57.2 °F 82% 29.56 in 6.2 mi South 11.5 mph - N/A   Scattered Clouds
3:20 PM 64.4 °F 57.2 °F 77% 29.56 in 6.2 mi South 11.5 mph - N/A   Scattered Clouds
3:50 PM 64.4 °F 57.2 °F 77% 29.56 in 6.2 mi South 10.4 mph - N/A   Scattered Clouds
4:20 PM 62.6 °F 55.4 °F 77% 29.56 in 6.2 mi South 8.1 mph - N/A   Scattered Clouds
4:50 PM 59.0 °F 55.4 °F 88% 29.56 in 0.7 mi West 17.3 mph - N/A Rain Heavy Rain Showers
5:20 PM 55.4 °F 53.6 °F 94% 29.56 in 6.2 mi South 5.8 mph - N/A Rain Light Rain Showers
5:50 PM 55.4 °F 53.6 °F 94% 29.59 in 6.2 mi South 8.1 mph - N/A   Scattered Clouds
6:20 PM 53.6 °F 53.6 °F 100% 29.59 in 6.2 mi South 8.1 mph - N/A   Partly Cloudy
6:50 PM 53.6 °F 53.6 °F 100% 29.62 in - South 6.9 mph - N/A   Clear
7:20 PM 53.6 °F 51.8 °F 94% 29.62 in - South 6.9 mph - N/A   Clear
7:50 PM 53.6 °F 51.8 °F 94% 29.62 in - South 6.9 mph - N/A   Clear
8:20 PM 51.8 °F 51.8 °F 100% 29.62 in - South 6.9 mph - N/A   Clear
8:50 PM 51.8 °F 51.8 °F 100% 29.62 in 6.2 mi SSE 6.9 mph - N/A   Partly Cloudy
9:20 PM 51.8 °F 51.8 °F 100% 29.65 in 6.2 mi South 6.9 mph - N/A   Partly Cloudy
9:50 PM 51.8 °F 51.8 °F 100% 29.65 in - South 6.9 mph - N/A   Clear
10:20 PM 51.8 °F 51.8 °F 100% 29.65 in - South 8.1 mph - N/A   Clear
10:50 PM 51.8 °F 51.8 °F 100% 29.65 in - South 5.8 mph - N/A   Clear
11:20 PM 51.8 °F 50.0 °F 94% 29.65 in - South 6.9 mph - N/A   Clear
11:50 PM 51.8 °F 51.8 °F 100% 29.62 in - South 9.2 mph - N/A   Clear